TimePST,TemperatureF,Dew PointF,Humidity,Sea Level PressureIn,VisibilityMPH,Wind Direction,Wind SpeedMPH,Gust SpeedMPH,PrecipitationIn,Events,Conditions,WindDirDegrees,DateUTC
12:53 AM,15.1,12.0,88,30.22,9.0,Calm,Calm,-,N/A,,Clear,0,2013-01-23 08:53:00
1:53 AM,17.1,15.1,92,30.23,9.0,West,4.6,-,N/A,,Clear,280,2013-01-23 09:53:00
2:53 AM,16.0,14.0,92,30.22,10.0,Calm,Calm,-,N/A,,Clear,0,2013-01-23 10:53:00
3:53 AM,18.0,16.0,92,30.20,10.0,WSW,4.6,-,N/A,,Clear,250,2013-01-23 11:53:00
4:53 AM,19.0,16.0,88,30.18,10.0,Calm,Calm,-,N/A,,Clear,0,2013-01-23 12:53:00
5:53 AM,18.0,16.0,92,30.16,10.0,Calm,Calm,-,N/A,,Clear,0,2013-01-23 13:53:00
6:53 AM,15.1,12.9,91,30.17,10.0,Calm,Calm,-,N/A,,Clear,0,2013-01-23 14:53:00
7:53 AM,14.0,12.0,92,30.16,10.0,NNW,5.8,-,N/A,,Clear,340,2013-01-23 15:53:00
8:53 AM,18.0,16.0,92,30.14,10.0,Calm,Calm,-,N/A,,Clear,0,2013-01-23 16:53:00
9:53 AM,19.9,18.0,92,30.14,10.0,Calm,Calm,-,N/A,,Clear,0,2013-01-23 17:53:00
10:53 AM,21.9,19.9,92,30.12,10.0,Calm,Calm,-,N/A,,Clear,0,2013-01-23 18:53:00
11:53 AM,26.1,23.0,88,30.09,10.0,Calm,Calm,-,N/A,,Clear,0,2013-01-23 19:53:00
12:53 PM,27.0,24.1,89,30.07,10.0,WSW,4.6,-,N/A,,Mostly Cloudy,240,2013-01-23 20:53:00
1:53 PM,28.9,25.0,85,30.02,10.0,Calm,Calm,-,N/A,,Overcast,0,2013-01-23 21:53:00
2:53 PM,28.9,25.0,85,30.04,10.0,Calm,Calm,-,N/A,,Overcast,0,2013-01-23 22:53:00
3:45 PM,28.4,24.8,86,29.96,2.5,Calm,Calm,-,0.00,Snow,Light Snow,0,2013-01-23 23:45:00
3:50 PM,28.4,24.8,86,29.96,0.8,Calm,Calm,-,0.00,Snow,Light Snow,0,2013-01-23 23:50:00
3:53 PM,28.9,26.1,89,30.05,0.5,Calm,Calm,-,0.00,Fog-Snow,Snow,0,2013-01-23 23:53:00
4:06 PM,28.4,26.6,93,29.96,0.5,ENE,3.5,-,0.00,Fog-Snow,Snow,70,2013-01-24 00:06:00
4:32 PM,28.4,26.6,93,29.96,0.5,ESE,4.6,-,0.00,Fog-Snow,Snow,120,2013-01-24 00:32:00
4:53 PM,28.0,27.0,96,30.04,0.8,Calm,Calm,-,0.00,Snow,Light Snow,0,2013-01-24 00:53:00
5:12 PM,28.4,26.6,93,29.94,1.0,ENE,3.5,-,0.00,Snow,Light Snow,60,2013-01-24 01:12:00
5:31 PM,28.4,26.6,93,29.94,2.0,Calm,Calm,-,0.00,Snow,Light Snow,0,2013-01-24 01:31:00
5:46 PM,28.4,26.6,93,29.94,1.8,Calm,Calm,-,0.00,Snow,Light Snow,0,2013-01-24 01:46:00
5:53 PM,28.9,28.0,96,30.03,1.8,Calm,Calm,-,0.00,Snow,Light Snow,0,2013-01-24 01:53:00
6:06 PM,28.4,28.4,100,29.94,1.2,Calm,Calm,-,0.00,Snow,Light Snow,0,2013-01-24 02:06:00
6:32 PM,28.4,28.4,100,29.92,3.0,North,3.5,-,0.00,Snow,Light Snow,360,2013-01-24 02:32:00
7:53 PM,28.9,28.9,100,29.99,4.0,Calm,Calm,-,0.00,Rain,Light Freezing Rain,0,2013-01-24 03:53:00
8:28 PM,30.2,28.4,93,29.91,5.0,West,5.8,-,0.00,,Overcast,260,2013-01-24 04:28:00
8:40 PM,30.2,28.4,93,29.91,3.0,SW,4.6,-,0.00,Snow,Light Snow,230,2013-01-24 04:40:00
8:47 PM,30.2,28.4,93,29.92,2.5,West,6.9,-,0.00,Snow,Light Snow,260,2013-01-24 04:47:00
8:53 PM,30.0,28.9,96,30.01,2.5,West,4.6,-,0.00,Snow,Light Snow,280,2013-01-24 04:53:00
9:09 PM,30.2,28.4,93,29.92,3.0,West,3.5,-,0.00,Snow,Light Snow,260,2013-01-24 05:09:00
9:50 PM,32.0,30.2,93,29.96,10.0,SSW,6.9,-,0.00,,Overcast,200,2013-01-24 05:50:00
9:53 PM,32.0,30.0,92,30.04,10.0,SSW,9.2,-,0.00,,Overcast,200,2013-01-24 05:53:00
10:23 PM,30.2,26.6,86,29.98,9.0,South,17.3,-,N/A,,Overcast,190,2013-01-24 06:23:00
10:35 PM,28.4,26.6,93,29.99,8.0,SSW,21.9,-,N/A,,Overcast,200,2013-01-24 06:35:00
10:53 PM,27.0,25.0,92,30.08,8.0,SSW,15.0,-,N/A,,Overcast,200,2013-01-24 06:53:00
11:53 PM,25.0,21.9,88,30.13,8.0,South,11.5,-,N/A,,Overcast,190,2013-01-24 07:53:00